Location: Birkenwerder
(52.6919°N, 13.2774°E)
Time: 15:34:43
(UTC+00:00)

Cosmos 1763 Rocket - Pass Details

Date: 07 June 2020
Orbit: 733 x 780 km, 74.0° (Epoch: 10 July)

Event Time Altitude Azimuth Distance (km) Brightness Sun altitude
Exits shadow 00:05:59 17° 218° (SW) 1,797 4.9 -13.4°
Maximum altitude 00:09:51 67° 298° (WNW) 801 3.6 -13.2°
Drops below altitude 10° 00:14:55 10° 22° (NNE) 2,248 7.4 -13.0°
Sets 00:17:18 0° 25° (NNE) 3,175 8.6 -12.9°
